[[{"header":{"parameterUnit":"m.s-1","parameterCategory":1,"la1":30.2991,"la2":30.254,"lo1":-89.0895,"lo2":-89.0444,"dy":0.0017,"dx":0.0017,"nx":28,"ny":28,"refTime":"2025-06-15T21:00:00:Z","depth":0,"parameterNumber":2,"parameterNumberName":"U-component_of_WINDS"},"data":[0,0,0,0,0,0,0,0,0,0,0,0,0,0,0,0,0,0,0,0,0,0,0,0,0,0,0,0,0,0,0,0,0,0,0,0,0,0,0,0,0,0,0,0,0,0,0,0,0,0,0,0,0,0,0,0,0,0,2.92,2.92,0,2.9202,2.9203,2.9203,2.9128,2.9126,2.9124,2.9122,2.9124,2.9126,2.9128,0,0,0,0,0,0,0,0,0,0,0,0,0,2.9127,2.9129,2.92,2.92,2.92,2.9202,2.9203,2.9203,2.9128,2.9126,2.9123,2.9121,2.9123,2.9126,2.9128,0,0,0,0,0,0,0,0,0,0,0,0,0,2.9147,2.913,2.92,2.9163,2.916,2.9202,2.9203,2.9203,2.9128,2.9125,2.9122,2.912,2.9123,2.9125,2.9128,2.9206,0,0,2.9137,2.9138,0,0,0,0,0,0,0,0,2.9146,2.915,2.9168,2.9166,2.9162,2.9162,2.9178,2.9204,2.9129,2.914,2.9122,2.9118,2.9139,2.914,2.9147,2.9206,2.9206,2.9137,2.9139,2.914,2.9141,0,0,0,0,0,0,0,2.9145,2.915,2.9201,2.9169,2.9165,2.9145,2.9145,2.9182,2.9156,2.9139,2.9134,2.9135,2.9137,2.9145,2.9147,2.9206,2.9137,2.914,2.9142,2.9143,2.9324,2.9327,0,0,0,0,0,0,2.9149,2.9149,2.9201,2.9201,2.9147,2.9149,2.9149,2.9165,2.9156,2.9152,2.9138,2.9132,2.9141,2.9144,2.9147,2.9233,2.914,2.9143,2.9145,2.9321,2.9325,2.9328,0,0,0,0,0,0,2.9148,2.9154,2.9201,2.9173,2.9178,2.9154,2.9172,2.9166,2.9174,2.9155,2.915,2.9151,2.9139,2.9143,2.9191,2.9232,2.9144,2.9147,2.9317,2.9322,2.9327,2.9409,0,0,0,0,0,0,2.9146,2.9154,2.9185,2.9175,2.918,2.9246,2.9175,2.9169,2.918,2.9172,2.9166,2.9162,2.9137,2.9187,2.9194,2.9235,2.9149,2.9314,2.932,2.9325,2.9403,2.9416,2.9428,0,0,0,0,0,2.9144,2.9209,2.9186,2.9193,2.9217,2.9249,2.9251,2.9221,2.9184,2.9212,2.9199,2.9162,2.9228,2.9192,2.92,2.9242,2.9311,2.9318,2.9325,2.9397,2.9414,2.9428,0,0,0,0,0,0,2.9225,2.9207,2.9182,2.9246,2.9249,2.9236,2.9272,2.9241,2.9255,2.9247,2.9209,2.9208,2.9261,2.9257,2.9218,2.9314,2.9262,2.9271,2.9315,2.933,2.9343,2.9341,2.9152,0,0,0,0,0,2.9251,2.9278,2.9261,2.9319,2.9322,2.9297,2.931,2.9286,2.9288,2.9289,2.9279,2.9282,2.9302,2.9317,2.9335,2.9403,2.9398,2.9435,2.9448,2.9458,2.9465,2.9496,2.9511,2.9351,2.9351,2.9351,0,0,2.9303,2.9297,2.9317,2.9335,2.9335,2.9362,2.9298,2.9332,2.9351,2.9294,2.9337,2.933,2.9331,2.9388,2.9413,2.9386,2.9508,2.9467,2.9475,2.9476,2.9505,2.952,2.9533,2.9356,2.9355,2.9354,0,0,2.9412,2.9412,2.9458,2.9458,2.9458,2.9441,2.9452,2.9443,2.9435,2.9479,2.9435,2.9457,2.9495,2.9495,2.9501,2.9607,2.9572,2.9615,2.9679,2.9709,2.9722,2.9733,2.9766,2.9779,2.9622,2.9622,2.9623,0,2.9478,2.9518,2.9486,2.952,2.9528,2.9477,2.9521,2.9524,2.953,2.9536,2.9506,2.9549,2.9546,2.96,2.9626,2.9634,2.9642,2.9614,2.9723,2.9733,2.9743,2.9774,2.9788,2.9627,2.9627,2.9626,2.9626,0,2.9596,2.9624,2.9662,2.9667,2.9679,2.9719,2.9691,2.9707,2.9683,2.9668,2.971,2.9705,2.9719,2.9731,2.9708,2.9781,2.9764,2.973,2.9675,2.9763,2.9792,2.9805,2.9634,2.9632,2.9631,2.963,0,0,2.9756,2.9741,2.9755,2.9754,2.9749,2.977,2.9807,2.982,2.9832,2.9839,2.9865,2.9897,2.9864,2.987,2.9847,2.9874,2.9953,2.9835,2.9835,2.9854,3.0028,3.0051,3.0066,2.9931,2.9933,2.9935,3.0026,0,2.9858,2.9918,2.9889,2.9952,2.9976,2.9927,2.9958,2.9957,2.9944,2.9962,2.9947,2.9968,2.9926,2.9928,2.9953,2.9938,2.9987,2.9932,2.9953,2.9954,2.995,3.0082,3.0107,3.0193,3.0038,3.004,3.0041,0,2.9985,2.9994,3.0059,3.0045,3.0054,3.0083,3.009,3.0109,3.0106,3.0094,3.01,3.0069,3.0102,3.0051,3.0093,3.0056,3.0064,3.0058,3.006,3.0058,3.0001,3.0079,3.0221,3.0232,3.006,3.0058,3.0057,0,3.0089,3.0118,3.0159,3.0161,3.0148,3.0168,3.0164,3.0158,3.0167,3.0174,3.0178,3.019,3.0195,3.0204,3.0176,3.0142,3.0221,3.0169,3.0209,3.021,3.0225,3.0224,3.0366,3.0237,3.0237,3.0237,3.0237,0,3.0204,3.0244,3.0205,3.023,3.0273,3.0239,3.0282,3.0273,3.0268,3.0289,3.0249,3.0269,3.0233,3.025,3.0229,3.0264,3.0269,3.0258,3.0251,3.0259,3.026,3.0261,3.0252,3.024,3.024,3.0239,3.0238,0,3.0326,3.0302,3.0343,3.0326,3.0323,3.0355,3.034,3.0362,3.0346,3.0372,3.0377,3.0351,3.0368,3.0342,3.0357,3.0343,3.0391,3.0377,3.0391,3.0386,3.0426,3.0421,3.057,3.0586,3.0451,3.0453,3.0454,0,3.0399,3.0428,3.0414,3.0425,3.0422,3.0441,3.0448,3.0416,3.0425,3.0423,3.0444,3.0457,3.0466,3.0495,3.0477,3.0487,3.0471,3.0522,3.0472,3.0478,3.0466,3.0463,3.0464,3.0532,3.0533,3.0535,3.0536,0,3.0529,3.0514,3.0527,3.0534,3.0544,3.0549,3.0551,3.0562,3.0527,3.054,3.0556,3.0562,3.0576,3.0589,3.0594,3.0588,3.0555,3.0552,3.0561,3.0568,3.0573,3.0566,3.0415,3.0548,3.0547,3.0546,3.0545,3.0545,3.0625,3.0647,3.0639,3.0654,3.0651,3.0653,3.0671,3.0656,3.0669,3.0677,3.0657,3.0677,3.0671,3.0674,3.0672,3.0686,3.0663,3.0678,3.0681,3.0684,3.0688,3.0574,3.0688,3.0687,3.0687,3.0687,3.0686,0,3.0748,3.0741,3.0754,3.0756,3.0767,3.0736,3.0735,3.0746,3.0764,3.0761,3.0769,3.0786,3.0798,3.0781,3.0789,3.0803,3.0788,3.0806,3.0802,3.0801,3.071,3.0699,3.0818,3.0818,3.0818,3.0818,3.0818,3.0818,3.0814,3.0848,3.0833,3.0864,3.0856,3.0875,3.0876,3.0877,3.0874,3.0894,3.0903,3.0892,3.0882,3.0889,3.0897,3.0892,3.0895,3.0917,3.0906,3.0821,3.0808,3.0795,3.0785,3.0919,3.0919,3.0995,3.0995,3.0996]},{"header":{"parameterUnit":"m.s-1","parameterCategory":1,"la1":30.2991,"la2":30.254,"lo1":-89.0895,"lo2":-89.0444,"dy":0.0017,"dx":0.0017,"nx":28,"ny":28,"refTime":"2025-06-15T21:00:00:Z","depth":0,"parameterNumber":3,"parameterNumberName":"V-component_of_WINDS"},"data":[0,0,0,0,0,0,0,0,0,0,0,0,0,0,0,0,0,0,0,0,0,0,0,0,0,0,0,0,0,0,0,0,0,0,0,0,0,0,0,0,0,0,0,0,0,0,0,0,0,0,0,0,0,0,0,0,0,0,5.177,5.1771,0,5.1877,5.1878,5.188,5.1851,5.1849,5.1847,5.1845,5.1947,5.1952,5.1956,0,0,0,0,0,0,0,0,0,0,0,0,0,5.1532,5.1537,5.177,5.1772,5.1773,5.1877,5.1878,5.188,5.1851,5.1849,5.1846,5.1844,5.1946,5.1951,5.1957,0,0,0,0,0,0,0,0,0,0,0,0,0,5.1637,5.1538,5.177,5.1771,5.1773,5.1877,5.1878,5.188,5.1852,5.1849,5.1845,5.1842,5.1944,5.1951,5.1958,5.2065,0,0,5.1979,5.1982,0,0,0,0,0,0,0,0,5.1631,5.1646,5.177,5.1771,5.1773,5.1848,5.1832,5.1942,5.1853,5.1821,5.1845,5.1841,5.1916,5.1925,5.1952,5.207,5.2074,5.198,5.1984,5.1987,5.1989,0,0,0,0,0,0,0,5.1624,5.1641,5.1812,5.1772,5.1774,5.1764,5.1775,5.1853,5.1885,5.1824,5.1822,5.1836,5.1916,5.1945,5.1954,5.2076,5.198,5.1986,5.199,5.1993,5.2282,5.2285,0,0,0,0,0,0,5.1616,5.1635,5.1809,5.1815,5.1693,5.177,5.1783,5.1827,5.1884,5.189,5.1838,5.1834,5.1935,5.1946,5.1958,5.2084,5.1987,5.1994,5.1998,5.2278,5.2282,5.2286,0,0,0,0,0,0,5.1611,5.1632,5.1805,5.1725,5.1746,5.1778,5.1827,5.183,5.186,5.1895,5.19,5.1862,5.1933,5.1948,5.2038,5.2087,5.1997,5.2003,5.2274,5.228,5.2284,5.2339,0,0,0,0,0,0,5.1605,5.1631,5.1674,5.1726,5.1751,5.1886,5.183,5.1835,5.1873,5.1868,5.1919,5.1924,5.1931,5.2028,5.2045,5.2095,5.2009,5.227,5.2277,5.2283,5.2333,5.2346,5.2357,0,0,0,0,0,5.1596,5.1685,5.1676,5.1698,5.1806,5.1889,5.1902,5.1911,5.1877,5.1919,5.1941,5.1923,5.208,5.2037,5.2056,5.211,5.2267,5.2275,5.2282,5.2328,5.2343,5.2356,0,0,0,0,0,0,5.1636,5.1692,5.1683,5.1792,5.1836,5.1884,5.1937,5.1927,5.198,5.1973,5.1979,5.1991,5.2082,5.2105,5.2057,5.2214,5.2168,5.218,5.2196,5.2211,5.2222,5.2214,5.2015,0,0,0,0,0,5.1658,5.1723,5.1767,5.1858,5.1881,5.1906,5.1942,5.1945,5.199,5.2008,5.2037,5.2079,5.2137,5.2176,5.2232,5.2337,5.2345,5.2383,5.2394,5.2404,5.2413,5.2466,5.2482,5.2312,5.2311,5.2311,0,0,5.1702,5.1741,5.1782,5.1867,5.1902,5.1966,5.1922,5.1992,5.2039,5.2018,5.2104,5.2127,5.2174,5.2271,5.2316,5.2293,5.2462,5.2414,5.2421,5.2425,5.2476,5.2492,5.2507,5.2317,5.2316,5.2315,0,0,5.1816,5.1854,5.1932,5.1968,5.2021,5.2036,5.2055,5.2105,5.2119,5.2207,5.2191,5.2245,5.2347,5.238,5.241,5.2534,5.2518,5.2552,5.2612,5.2664,5.2677,5.2689,5.273,5.2745,5.2562,5.2562,5.2562,0,5.1864,5.1963,5.1973,5.2045,5.2081,5.2067,5.2143,5.2177,5.2245,5.2269,5.2243,5.2368,5.24,5.2502,5.2532,5.2559,5.2577,5.2545,5.2675,5.2687,5.2698,5.2737,5.2753,5.2566,5.2565,5.2565,5.2564,0,5.2018,5.2086,5.2143,5.221,5.2253,5.2327,5.2345,5.2386,5.2385,5.2401,5.2488,5.2525,5.2587,5.2612,5.261,5.2713,5.2697,5.2674,5.2627,5.2718,5.2754,5.277,5.2571,5.2569,5.2568,5.2568,0,0,5.216,5.2231,5.2251,5.228,5.2337,5.2388,5.246,5.2522,5.2555,5.2602,5.266,5.2745,5.2723,5.2757,5.2759,5.2805,5.2896,5.2775,5.2776,5.2794,5.3008,5.3023,5.3041,5.2887,5.289,5.2892,5.3003,0,5.2276,5.2405,5.2414,5.2529,5.259,5.2576,5.2637,5.2677,5.2694,5.2746,5.2764,5.2823,5.2791,5.2811,5.2856,5.2876,5.2939,5.2868,5.2937,5.2939,5.2923,5.306,5.3078,5.3181,5.3017,5.302,5.3022,0,5.2429,5.2482,5.2603,5.2648,5.2674,5.273,5.2785,5.2837,5.288,5.2888,5.2926,5.2921,5.299,5.2943,5.3036,5.2988,5.3016,5.303,5.3034,5.3039,5.2984,5.3066,5.3214,5.3228,5.3045,5.3043,5.3041,0,5.2516,5.2617,5.2702,5.2727,5.2783,5.2822,5.2847,5.2887,5.2923,5.297,5.2993,5.3048,5.3077,5.3118,5.3126,5.3091,5.3219,5.3172,5.3225,5.3224,5.3251,5.3248,5.3403,5.3274,5.3274,5.3273,5.3273,0,5.2644,5.2717,5.2741,5.2793,5.2874,5.2883,5.2961,5.2983,5.3019,5.3072,5.3063,5.3112,5.3122,5.3172,5.3179,5.3253,5.3267,5.3274,5.3274,5.3273,5.3272,5.329,5.3282,5.3277,5.3276,5.3276,5.3275,0,5.2754,5.2774,5.2864,5.291,5.2923,5.298,5.3017,5.3065,5.3081,5.3147,5.3163,5.3187,5.3246,5.3259,5.3329,5.3333,5.342,5.3415,5.3406,5.3405,5.3455,5.3449,5.3624,5.3646,5.3506,5.3507,5.3508,0,5.2833,5.2889,5.2941,5.2976,5.3003,5.3061,5.3097,5.3107,5.3145,5.3197,5.3237,5.3295,5.3342,5.3435,5.3457,5.3509,5.3503,5.3561,5.3511,5.3507,5.35,5.3495,5.3499,5.3569,5.3571,5.3572,5.3573,0,5.2969,5.2976,5.303,5.3086,5.313,5.3174,5.3217,5.3246,5.3261,5.3303,5.3363,5.34,5.347,5.3526,5.3578,5.36,5.3588,5.3589,5.3603,5.3602,5.3593,5.3595,5.3429,5.3585,5.3583,5.3583,5.3582,5.3582,5.3064,5.3112,5.3155,5.3214,5.3247,5.3287,5.3333,5.3355,5.3406,5.3466,5.3468,5.3533,5.3571,5.3639,5.3664,5.3713,5.3695,5.3716,5.3721,5.3726,5.3729,5.3587,5.3723,5.3723,5.3722,5.3722,5.3722,0,5.3197,5.3224,5.3279,5.3338,5.3384,5.3371,5.3416,5.3454,5.3512,5.355,5.3596,5.3664,5.3718,5.3744,5.3796,5.383,5.3825,5.3843,5.3839,5.3843,5.3744,5.3725,5.3845,5.3845,5.3845,5.3845,5.3845,5.3845,5.3271,5.3351,5.3362,5.3457,5.3482,5.3547,5.3574,5.3608,5.3638,5.3715,5.376,5.3778,5.3809,5.3864,5.3911,5.3917,5.3935,5.3955,5.3958,5.3864,5.3851,5.3839,5.3821,5.396,5.396,5.4053,5.4054,5.4054]}]]